{"data":{"norad_id":52382,"epoch":"2026-09-20T04:00:03.000096Z","epoch_age_seconds":88457,"freshness":"FRESH","line1":"1 52382U 22045BD  26263.16670139  .00184117  00000+0  26342-2 0  9995","line2":"2 52382  53.2114   6.1763 0001950  60.7626 243.2978 15.55088548  5901","mean_motion":15.55088548,"eccentricity":0.000195,"inclination_deg":53.2114,"raan_deg":6.1763,"arg_perigee_deg":60.7626,"mean_anomaly_deg":243.2978,"bstar":0.0026342,"rev_number":590,"period_min":92.599228632478,"perigee_km":400.57313718873,"apogee_km":403.21734976368,"semimajor_km":6780.0322434762,"source":"CELESTRAK","updated_at":"2026-09-20T09:00:40.031028Z"}}